#�ϑ�����,���ϕ���,���ϕ���,�ő啗��,�ő啗����������,�ő�u�ԕ���,�ő�u�ԕ�����������
#(�N����),(m/s)   ,(16����),(m/s)   ,(16����)        ,(m/s)       ,(16����)            
2012/9/6 1:56,0.5,1,0.5,1,0.6,1
2012/9/6 1:57,0.5,2,0.5,1,0.6,1
2012/9/6 1:58,0.4,2,0.5,1,0.5,2
2012/9/6 1:59,0.3,2,0.4,1,0.5,1
2012/9/6 2:00,0.3,2,0.3,1,0.4,16
2012/9/6 2:01,0.3,2,0.3,1,0.4,3
2012/9/6 2:02,0.3,2,0.3,1,0.4,3
2012/9/6 2:03,0.3,2,0.3,1,0.6,4
2012/9/6 2:04,0.2,2,0.3,1,0.5,2
2012/9/6 2:05,0.2,2,0.2,1,0.3,5
2012/9/6 2:06,0.2,2,0.2,1,0.6,16
2012/9/6 2:07,0.2,1,0.3,2,0.6,16
2012/9/6 2:08,0.2,1,0.2,2,0.5,16
2012/9/6 2:09,0.2,1,0.2,2,0.4,15
2012/9/6 2:10,0.2,16,0.2,2,0.4,12
2012/9/6 2:11,0.2,15,0.2,2,0.6,13
2012/9/6 2:12,0.2,15,0.2,2,0.6,13
2012/9/6 2:13,0.3,14,0.3,2,0.6,10
2012/9/6 2:14,0.3,14,0.3,2,0.8,11
2012/9/6 2:15,0.4,13,0.4,13,0.9,10
2012/9/6 2:16,0.4,13,0.4,13,0.8,10
2012/9/6 2:17,0.4,12,0.4,13,1,10
2012/9/6 2:18,0.4,12,0.4,13,1.3,11
2012/9/6 2:19,0.5,11,0.5,12,1,14
2012/9/6 2:20,0.5,11,0.5,12,0.9,10
2012/9/6 2:21,0.5,11,0.5,12,1.1,10
2012/9/6 2:22,0.6,10,0.6,10,1.3,10
2012/9/6 2:23,0.6,10,0.6,10,1.3,8
2012/9/6 2:24,0.6,10,0.6,10,1.3,9
2012/9/6 2:25,0.6,10,0.6,10,1.3,11
2012/9/6 3:57,0.3,5,0.3,5,0.3,5
2012/9/6 3:58,0.1,4,0.3,5,0.4,4
2012/9/6 3:59,0.2,3,0.2,5,0.5,2
2012/9/6 4:00,0.1,2,0.2,5,0.1,1
2012/9/6 4:01,0.2,2,0.2,5,0.5,3
2012/9/6 4:02,0.2,2,0.2,5,1,3
2012/9/6 4:03,0.3,2,0.3,5,1,3
2012/9/6 4:04,0.4,2,0.4,2,0.9,2
2012/9/6 4:05,0.4,2,0.4,2,1,2
2012/9/6 4:06,0.4,2,0.4,2,0.9,1
2012/9/6 4:07,0.4,2,0.4,2,0.9,1
2012/9/6 4:08,0.4,1,0.4,2,0.9,1
2012/9/6 4:09,0.5,2,0.5,2,0.9,4
2012/9/6 4:10,0.5,1,0.5,2,0.9,1
2012/9/6 4:11,0.5,1,0.5,2,1.1,2
2012/9/6 4:12,0.6,1,0.6,1,1,3
2012/9/6 4:13,0.5,1,0.6,1,0.9,3
2012/9/6 4:14,0.5,1,0.6,1,0.5,1
2012/9/6 4:15,0.5,2,0.5,1,0.6,3
2012/9/6 4:16,0.5,2,0.5,1,0.5,4
2012/9/6 4:17,0.5,2,0.5,1,0.8,4
2012/9/6 4:18,0.5,2,0.5,1,0.6,3
2012/9/6 4:28,1.4,3,1.4,3,1.5,3
2012/9/6 4:29,1.2,4,1.4,3,1.5,3
2012/9/6 4:30,1,3,1.2,3,1,4
2012/9/6 4:31,1,3,1,3,1.3,3
2012/9/6 4:32,0.9,3,0.9,3,1.1,2
2012/9/6 4:33,0.9,3,0.9,3,1.3,3
2012/9/6 4:34,0.8,3,0.9,3,0.5,1
2012/9/6 4:35,0.8,2,0.8,3,1.6,3
2012/9/6 4:36,0.9,2,0.9,3,1.8,1
2012/9/6 4:37,0.9,2,0.9,3,1.5,2
2012/9/6 4:38,0.9,2,0.9,3,1.3,1
2012/9/6 4:39,0.9,2,0.9,4,1.4,2
2012/9/6 4:40,0.8,2,0.9,3,1.4,3
2012/9/6 4:41,0.9,2,0.9,3,1.9,3
2012/9/6 4:42,1,2,1,2,1.8,3
2012/9/6 4:43,1,2,1,2,1.9,3
2012/9/6 4:44,1.2,2,1.2,2,1.9,3
2012/9/6 4:45,1.2,2,1.2,2,2,3
2012/9/6 4:46,1.3,3,1.3,3,2,4
2012/9/6 4:47,1.3,3,1.3,3,1.9,3
2012/9/6 4:48,1.4,3,1.4,3,2.2,4
2012/9/6 4:49,1.5,3,1.5,3,2.2,3
2012/9/6 4:50,1.5,3,1.5,3,1.9,4
2012/9/6 4:51,1.5,4,1.5,3,1.9,4
2012/9/6 4:52,1.5,4,1.5,3,1.9,5
2012/9/6 4:53,1.5,4,1.5,3,2,4
2012/9/6 4:54,1.4,4,1.5,3,2,5
2012/9/6 4:55,1.4,4,1.4,3,1.6,3
2012/9/6 4:56,1.4,4,1.4,3,1.6,4
2012/9/6 4:57,1.3,4,1.4,3,1.6,3
2012/9/6 4:58,1.3,4,1.3,3,1.4,3
2012/9/6 4:59,1.2,4,1.3,3,1.3,5
2012/9/6 5:00,1.1,4,1.2,3,1.3,1
2012/9/6 5:01,1,4,1.1,4,1,1
2012/9/6 5:02,0.9,3,1,4,0.8,2
2012/9/6 5:03,0.8,3,0.9,4,0.4,4
2012/9/6 5:04,0.7,3,0.8,4,0.8,2
2012/9/6 5:05,0.7,2,0.7,4,1,1
2012/9/6 5:06,0.6,2,0.7,4,0.8,2
2012/9/6 5:07,0.6,2,0.6,4,0.6,2
2012/9/6 5:08,0.5,1,0.6,4,0.3,1
2012/9/6 5:09,0.4,1,0.5,4,0.5,16
2012/9/6 5:10,0.4,1,0.4,4,0.5,3
2012/9/6 8:36,1.9,8,1.9,8,1.9,8
2012/9/6 8:37,1.4,8,1.9,8,2,8
2012/9/6 8:38,1.2,8,1.4,8,1.6,8
2012/9/6 8:39,1.1,8,1.2,8,1.5,8
2012/9/6 8:40,1.1,8,1.2,8,1.6,8
2012/9/6 8:41,1,8,1.1,8,1,9
2012/9/6 8:42,0.9,8,1,8,0.5,8
2012/9/6 8:43,0.8,8,0.8,8,1,9
2012/9/6 8:44,0.8,8,0.8,8,1.3,7
2012/9/6 8:45,0.8,8,0.8,8,1,8
2012/9/6 8:46,0.7,8,0.8,8,0.6,7
2012/9/6 8:47,0.6,8,0.7,8,0.5,9
2012/9/6 8:48,0.5,8,0.6,8,1,8
2012/9/6 8:49,0.5,8,0.5,8,1.3,8
2012/9/6 8:50,0.5,8,0.5,8,1.1,8
2012/9/6 8:51,0.5,8,0.5,8,1,9
2012/9/6 8:52,0.5,8,0.5,8,0.9,8
2012/9/6 8:53,0.5,8,0.5,8,0.9,9
2012/9/6 8:54,0.4,8,0.5,8,0.6,9
2012/9/6 8:55,0.4,9,0.4,8,0.9,8
2012/9/6 8:56,0.5,9,0.5,8,1,9
2012/9/6 8:57,0.5,9,0.5,8,1,7
2012/9/6 8:58,0.5,9,0.5,8,1.1,8
2012/9/6 8:59,0.5,9,0.5,8,1,8
2012/9/6 9:00,0.5,9,0.5,8,0.9,8
2012/9/6 9:01,0.5,9,0.5,8,1,8
2012/9/6 9:02,0.6,8,0.6,8,1.3,8
2012/9/6 9:03,0.6,8,0.6,8,0.9,8
2012/9/6 9:04,0.5,8,0.6,8,0.5,8
2012/9/6 9:05,0.5,8,0.5,8,0.1,2
2012/9/6 9:06,0.5,8,0.5,8,0.6,10
2012/9/6 9:07,0.5,8,0.5,8,1.5,8
2012/9/6 9:08,0.5,8,0.5,8,0.9,8
2012/9/6 9:09,0.5,8,0.5,8,1.1,8
2012/9/6 9:10,0.5,8,0.5,8,1.4,8
2012/9/6 9:11,0.5,8,0.6,8,1,8
2012/9/6 9:12,0.5,8,0.5,8,0.5,9
2012/9/6 9:13,0.5,8,0.5,8,0.9,8
2012/9/6 9:14,0.5,8,0.5,8,1.1,8
2012/9/6 9:15,0.5,8,0.5,8,0.8,8
2012/9/6 9:16,0.5,8,0.6,8,0.6,8
2012/9/6 9:17,0.5,8,0.5,8,0.4,12
2012/9/6 9:18,0.5,9,0.5,8,1,9
2012/9/6 9:19,0.5,9,0.5,8,0.9,9
2012/9/6 9:20,0.4,9,0.5,8,0.5,9
2012/9/6 9:21,0.4,9,0.4,8,0.8,9
2012/9/6 9:22,0.4,9,0.4,8,0.6,9
2012/9/6 9:23,0.4,9,0.4,8,0.3,10
2012/9/6 9:24,0.3,9,0.3,8,1.1,13
2012/9/6 9:25,0.4,10,0.4,8,0.9,16
2012/9/6 9:26,0.4,10,0.4,8,1.3,10
2012/9/6 9:27,0.5,10,0.5,8,2.1,10
2012/9/6 9:28,0.6,10,0.6,10,2.2,11
2012/9/6 9:29,0.7,10,0.7,10,2.2,10
2012/9/6 9:30,0.8,10,0.8,10,2.2,10
2012/9/6 9:31,1,11,1,11,2,9
2012/9/6 9:32,1.1,11,1.1,11,3,8
2012/9/6 9:33,1.2,11,1.2,11,2.4,10
2012/9/6 9:34,1.3,11,1.3,11,1.8,11
2012/9/6 9:35,1.4,11,1.4,11,1.9,10
2012/9/6 9:36,1.4,11,1.4,11,1.6,9
2012/9/6 9:37,1.4,11,1.4,11,1.4,8
2012/9/6 9:38,1.4,10,1.4,11,2,7
2012/9/6 9:39,1.4,10,1.4,11,2.2,8
2012/9/6 9:40,1.4,10,1.4,11,2.2,7
2012/9/6 9:41,1.3,9,1.3,11,1.9,8
2012/9/6 9:42,1.2,9,1.3,11,1.5,9
2012/9/6 9:43,1.2,8,1.2,11,1.3,8
2012/9/6 9:44,1.1,8,1.2,11,0.8,9
2012/9/6 9:45,1,8,1.1,11,0.5,10
2012/9/6 9:46,0.9,8,1,11,1,10
2012/9/6 9:47,0.9,8,0.9,10,0.8,7
2012/9/6 9:48,0.8,8,0.9,10,0.5,10
2012/9/6 9:49,0.7,8,0.8,10,1.5,12
2012/9/6 9:50,0.6,9,0.7,9,0.8,12
2012/9/6 9:51,0.5,9,0.6,9,0.9,14
2012/9/6 9:52,0.5,10,0.5,9,0.8,15
2012/9/6 9:53,0.5,11,0.5,8,1.5,14
2012/9/6 9:54,0.5,12,0.5,8,0.8,15
2012/9/6 9:55,0.5,13,0.5,8,0.8,16
2012/9/6 9:56,0.5,14,0.5,8,0.8,16
2012/9/6 9:57,0.4,14,0.5,8,0.4,5
2012/9/6 9:58,0.4,15,0.4,8,0.3,3
2012/9/6 9:59,0.3,16,0.4,8,0.1,3
2012/9/6 10:00,0.3,16,0.3,9,0.5,1
2012/9/6 10:01,0.3,1,0.3,9,0.9,6
2012/9/6 10:02,0.3,2,0.3,10,0.9,6
2012/9/6 10:03,0.3,2,0.3,11,1,7
2012/9/6 10:04,0.3,3,0.3,12,1,7
2012/9/6 10:05,0.3,4,0.3,13,0.8,10
2012/9/6 10:06,0.3,5,0.3,14,0.9,5
2012/9/6 10:07,0.3,6,0.3,15,1.1,10
2012/9/6 10:08,0.4,6,0.4,15,1.5,6
2012/9/6 10:09,0.5,6,0.5,6,1.8,6
2012/9/6 10:10,0.5,6,0.5,6,1.6,6
2012/9/6 10:11,0.6,6,0.6,6,1.5,5
2012/9/6 10:12,0.7,6,0.7,6,1.5,4
2012/9/6 10:13,0.7,6,0.7,6,1.3,4
2012/9/6 13:56,0.5,16,0.5,16,0.5,15
2012/9/6 13:57,0.2,13,0.5,16,0.6,16
2012/9/6 13:58,0.4,9,0.4,16,1.3,7
2012/9/6 13:59,0.7,8,0.7,8,2.2,7
2012/9/6 14:00,0.9,7,0.9,7,2.4,6
2012/9/6 14:01,0.9,7,0.9,7,1.1,6
2012/9/6 14:02,0.9,7,0.9,7,1.5,8
2012/9/6 14:03,0.9,7,0.9,7,1.9,10
2012/9/6 14:04,1.1,8,1.1,8,3.1,11
2012/9/6 14:05,1.2,8,1.2,8,2.7,11
2012/9/6 14:06,1.2,9,1.2,8,1.9,12
2012/9/6 14:07,1.3,9,1.3,9,1.5,12
2012/9/6 14:08,1.4,10,1.4,10,1.5,12
2012/9/6 14:09,1.4,11,1.4,10,1.9,13
2012/9/6 14:10,1.4,11,1.4,10,2.2,13
2012/9/6 14:11,1.5,12,1.5,12,3.6,13
2012/9/6 14:12,1.6,12,1.6,12,2,13
2012/9/6 14:13,1.6,12,1.6,12,2.7,14
2012/9/6 14:14,1.6,13,1.6,12,6.1,16
2012/9/6 14:15,2,13,2,13,7.9,16
2012/9/6 14:16,2.4,13,2.4,13,11.5,16
2012/9/6 14:17,2.7,14,2.7,14,8.7,16
2012/9/6 14:18,3,14,3,14,6.5,15
2012/9/6 14:19,3.3,15,3.3,15,8.6,15
2012/9/6 14:20,3.7,15,3.7,15,8.5,15
2012/9/6 14:21,3.8,15,3.8,15,6.9,14
2012/9/6 14:22,4,16,4,16,4.9,16
2012/9/6 14:23,4.1,16,4.1,16,7.1,15
2012/9/6 14:24,4.3,16,4.4,16,7,16
2012/9/6 14:25,4.2,16,4.3,16,7,14
2012/9/6 14:26,4.1,16,4.1,16,8.9,1
2012/9/6 14:27,4.2,16,4.2,16,10.1,15
2012/9/6 14:28,4.3,16,4.3,16,8.1,16
2012/9/6 14:29,4.3,16,4.3,16,7.4,16
2012/9/6 14:30,4.2,16,4.3,16,6.3,16
2012/9/6 14:31,4.1,16,4.2,16,4.8,15
2012/9/6 14:32,4.1,15,4.1,16,5.5,16
2012/9/6 14:33,4.3,15,4.3,16,8.9,15
2012/9/6 14:34,4.4,15,4.4,15,8.4,15
2012/9/6 14:35,4.2,16,4.4,15,4.7,16
2012/9/6 14:36,4.2,16,4.2,15,5.5,16
2012/9/6 14:37,4.1,15,4.2,15,8.6,16
2012/9/6 14:38,4.1,16,4.1,15,8.2,16
2012/9/6 14:39,4.3,16,4.3,15,9.2,15
2012/9/6 14:40,4.5,16,4.5,16,8.9,15
2012/9/6 14:41,4.9,16,4.9,16,9.3,15
2012/9/6 14:42,5.1,16,5.1,16,8.4,16
2012/9/6 14:43,5,16,5.1,16,7.1,16
2012/9/6 14:44,5,16,5,16,6.9,16
2012/9/6 14:45,5.1,16,5.1,16,6.1,16
2012/9/6 14:46,5.1,16,5.2,16,6.9,16
2012/9/6 14:47,4.9,16,5.1,16,5.1,16
2012/9/6 14:48,4.6,16,4.9,16,2.7,14
2012/9/6 14:49,4.3,16,4.5,16,6.7,16
2012/9/6 14:50,4,16,4.3,16,5.4,16
2012/9/6 14:51,3.7,16,3.9,16,6.5,15
2012/9/6 14:52,3.5,16,3.7,16,5.5,14
2012/9/6 14:53,3.4,16,3.5,16,6.2,15
2012/9/6 14:54,3.1,16,3.4,16,4.3,16
2012/9/6 14:55,3.1,16,3.1,16,6.2,14
2012/9/6 14:56,3.2,15,3.2,16,6.5,15
2012/9/6 14:57,3.1,15,3.2,16,4.7,15
2012/9/6 14:58,3.3,15,3.3,16,4.4,15
2012/9/6 14:59,3.2,15,3.3,16,3.8,16
2012/9/6 15:00,3.1,15,3.1,16,3.9,16
2012/9/6 15:01,3.1,15,3.2,16,6.8,16
2012/9/6 15:02,3.1,15,3.2,16,5.4,15
2012/9/6 15:03,3,15,3.1,16,3.2,1
2012/9/6 15:04,3.1,15,3.1,15,4.7,15
2012/9/6 15:05,2.7,15,3.1,15,1.6,9
2012/9/6 15:06,2.6,15,2.7,15,4.8,8
2012/9/6 15:07,2.6,14,2.7,15,4.9,8
2012/9/6 15:08,2.6,14,2.6,15,5,7
2012/9/6 15:09,2.6,13,2.7,15,4.4,7
2012/9/6 15:10,2.5,10,2.6,15,3.8,8
2012/9/6 15:11,2.3,8,2.5,15,4.8,7
2012/9/6 15:12,2.5,8,2.5,15,7.7,8
2012/9/6 15:13,2.7,8,2.7,15,5.6,8
2012/9/6 15:14,2.7,8,2.7,15,5,8
2012/9/6 15:15,2.9,8,2.9,8,3.9,6
2012/9/6 15:16,2.7,8,2.9,8,3,10
2012/9/6 15:17,2.6,8,2.7,8,2.9,8
2012/9/6 15:18,2.5,8,2.6,8,3,8
2012/9/6 15:19,2.4,8,2.5,8,3.6,8
2012/9/6 15:20,2.5,8,2.5,8,3.9,8
2012/9/6 15:21,2.5,8,2.6,8,4.1,8
2012/9/6 15:22,2.2,8,2.5,8,3.1,7
2012/9/6 15:23,2,8,2.2,8,3.2,8
2012/9/6 15:24,2,8,2.1,8,3.9,8
2012/9/6 15:25,1.9,8,2,8,2.7,8
2012/9/6 15:26,1.9,8,1.9,8,3.1,8
2012/9/6 15:27,1.9,8,2,8,3.5,8
2012/9/6 15:28,2,8,2,8,3.5,8
2012/9/6 15:29,2,8,2,8,2.6,8
2012/9/6 15:30,1.9,8,2,8,4.9,8
2012/9/6 15:31,2,8,2,8,3.9,8
2012/9/6 15:32,2,8,2,8,4.9,9
2012/9/6 15:33,2.1,8,2.1,8,4.1,6
2012/9/6 15:34,2.1,8,2.1,8,3.9,6
2012/9/6 15:35,2.1,8,2.1,8,4.1,8
2012/9/6 15:36,2.2,7,2.2,8,2.7,7
2012/9/6 15:37,2.2,7,2.2,8,2.1,9
2012/9/6 15:38,2.1,7,2.1,8,2.2,9
2012/9/6 15:39,2.1,7,2.1,8,1.8,7
2012/9/6 15:40,1.9,7,2.1,8,1.5,5
2012/9/6 15:41,1.7,7,1.9,8,1.5,8
2012/9/6 15:42,1.5,7,1.6,8,1.6,7
2012/9/6 15:43,1.4,7,1.5,8,1.5,8
2012/9/6 15:44,1.2,8,1.4,8,0.9,11
2012/9/6 15:45,1,8,1.1,8,1.5,6
2012/9/6 15:46,1,7,1,7,2,5
2012/9/6 15:47,1,7,1,7,1.8,6
2012/9/6 15:48,0.9,7,1,7,1.6,4
2012/9/6 15:49,0.9,6,0.9,7,1.6,5
2012/9/6 15:50,0.9,6,0.9,7,1.1,6
2012/9/6 15:51,1,5,1,7,1.6,3
2012/9/6 15:52,1,5,1,7,1.8,2
2012/9/6 15:53,1.1,5,1.1,7,2.2,6
2012/9/6 15:54,1.2,5,1.2,5,1.8,6
2012/9/6 15:55,1.2,5,1.2,5,2,6
2012/9/6 15:56,1.1,5,1.2,5,1.1,6
2012/9/6 15:57,1.1,5,1.1,5,1.5,7
2012/9/6 15:58,1,5,1.1,5,1.6,7
2012/9/6 15:59,1,5,1,5,1.5,6
2012/9/6 16:00,1,5,1,5,1.4,4
2012/9/6 16:01,1,5,1,5,1.9,3
2012/9/6 16:02,0.9,5,1,5,1.5,1
2012/9/6 16:03,0.9,5,0.9,5,1.6,2
2012/9/6 16:04,0.8,5,0.9,5,1.5,3
2012/9/6 16:05,0.7,5,0.8,5,1,3
2012/9/6 16:06,0.7,5,0.7,5,0.6,10
2012/9/6 16:07,0.7,4,0.7,5,0.6,5
2012/9/6 16:08,0.7,5,0.7,5,1.3,8
2012/9/6 16:09,0.7,5,0.7,5,1.1,10
2012/9/6 16:10,0.6,6,0.7,5,0.8,7
2012/9/6 16:11,0.5,7,0.6,5,0.6,15
2012/9/6 16:12,0.5,7,0.5,5,1,7
2012/9/6 16:13,0.4,7,0.5,5,0.5,5
2012/9/6 16:14,0.5,8,0.5,5,1.9,6
2012/9/6 16:15,0.6,8,0.6,5,1.8,6
2012/9/6 16:16,0.6,7,0.6,5,1.1,6
2012/9/6 16:17,0.6,7,0.6,4,0.5,2
2012/9/6 16:18,0.6,6,0.6,5,1,3
2012/9/6 16:19,0.5,5,0.6,5,0.6,2
2012/9/6 16:20,0.5,5,0.6,6,0.9,1
2012/9/6 16:21,0.6,4,0.6,8,1.8,15
2012/9/6 16:22,0.6,4,0.6,8,1.3,16
2012/9/6 16:23,0.6,2,0.6,8,0.8,14
2012/9/6 16:24,0.6,1,0.6,8,0.8,14
2012/9/6 16:25,0.5,16,0.6,7,0.5,12
2012/9/6 16:26,0.4,15,0.5,7,0.6,10
2012/9/6 16:27,0.4,15,0.4,7,1.5,8
2012/9/6 16:28,0.5,14,0.5,6,2.1,8
2012/9/6 16:29,0.5,13,0.5,5,0.9,1
2012/9/6 16:30,0.5,13,0.5,5,1.8,8
2012/9/6 16:31,0.5,12,0.5,4,2.2,6
2012/9/6 16:32,0.7,9,0.7,9,2.6,7
2012/9/6 16:33,0.8,8,0.8,8,2.7,6
2012/9/6 16:34,1,7,1,7,2.5,7
2012/9/6 16:35,1.1,7,1.1,7,2.4,7
2012/9/6 16:36,1.3,7,1.3,7,3.1,8
2012/9/6 16:37,1.4,7,1.4,7,2.7,9
2012/9/6 16:38,1.5,7,1.5,7,3.9,8
2012/9/6 16:39,1.7,7,1.7,7,4.2,8
2012/9/6 16:40,1.8,7,1.8,7,3.5,8
2012/9/6 16:41,1.9,8,1.9,7,2.9,8
2012/9/6 16:42,2,8,2,8,3.5,7
2012/9/6 16:43,1.9,8,2,8,2.7,8
2012/9/6 16:44,1.9,8,1.9,8,2.1,8
2012/9/6 16:45,1.9,8,1.9,8,2.4,7
2012/9/6 16:46,1.8,8,1.9,8,2.2,8
2012/9/6 16:47,1.9,8,1.9,8,3.8,8
2012/9/6 16:48,1.9,8,1.9,8,3.7,8
2012/9/6 16:49,1.9,8,2,8,4.1,8
2012/9/6 16:50,1.9,8,1.9,8,3,8
2012/9/6 16:51,1.9,8,1.9,8,3.1,8
2012/9/6 16:52,1.9,8,1.9,8,3.5,7
2012/9/6 16:53,2,8,2,8,3.6,8
2012/9/6 16:54,2.1,8,2.1,8,3.5,8
2012/9/6 16:55,2.1,8,2.1,8,3.2,9
2012/9/6 16:56,2.1,8,2.1,8,4.2,9
2012/9/6 16:57,2.2,8,2.2,8,3.6,8
2012/9/6 16:58,2.2,8,2.2,8,3.3,8
2012/9/6 16:59,2,8,2.2,8,2.4,10
2012/9/6 17:00,1.9,8,2,8,1.8,7
2012/9/6 17:01,1.9,8,1.9,8,2.5,8
2012/9/6 17:02,1.8,8,1.9,8,2.7,8
2012/9/6 17:03,1.8,8,1.8,8,2.1,8
2012/9/6 17:04,1.7,8,1.8,8,2.1,7
2012/9/6 17:05,1.8,8,1.8,8,2.5,10
2012/9/6 17:06,1.6,8,1.7,8,2.4,8
2012/9/6 17:07,1.5,9,1.6,8,2.2,8
2012/9/6 17:08,1.5,9,1.5,8,2.4,8
2012/9/6 17:09,1.5,8,1.5,8,2.5,8
2012/9/6 17:10,1.5,9,1.5,8,1.9,8
2012/9/6 17:11,1.4,9,1.5,8,1.4,11
2012/9/6 17:12,1.4,9,1.4,8,2.4,9
2012/9/6 17:13,1.4,9,1.4,8,2.1,9
2012/9/6 17:14,1.4,9,1.4,8,2,10
2012/9/6 17:15,1.3,9,1.4,8,1.9,9
2012/9/6 17:16,1.2,9,1.3,8,1.3,8
2012/9/6 17:17,1.1,9,1.2,9,1.6,8
2012/9/6 17:18,1,9,1.1,9,0.5,14
2012/9/6 17:19,0.9,10,1,8,2.2,10
2012/9/6 17:20,1,10,1,9,2.5,9
2012/9/6 17:21,1,10,1,9,2,11
2012/9/6 17:22,1,10,1,9,1.9,10
2012/9/6 17:23,1,10,1,9,2.5,9
2012/9/6 17:24,0.9,10,1,9,1.5,9
2012/9/6 17:25,0.9,10,0.9,9,1.5,9
2012/9/6 17:26,1,10,1,9,2.5,11
2012/9/6 17:27,1.1,10,1.1,9,2.6,9
2012/9/6 17:28,1.1,10,1.1,10,1.8,9
2012/9/6 17:29,1.1,10,1.1,10,2.6,11
2012/9/6 17:30,1.1,10,1.1,10,2.5,11
2012/9/6 17:31,1.2,10,1.2,10,2.1,9
2012/9/6 17:32,1.2,10,1.2,10,2.4,8
2012/9/6 17:33,1.1,10,1.2,10,2.5,8
2012/9/6 17:34,1.2,10,1.2,10,3,8
2012/9/6 17:35,1.4,9,1.4,9,3.5,9
2012/9/6 17:36,1.5,9,1.5,9,2.9,9
2012/9/6 17:37,1.5,9,1.5,9,3.2,9
2012/9/6 17:38,1.7,9,1.7,9,3.5,9
2012/9/6 17:39,1.7,9,1.7,9,2.7,9
2012/9/6 17:40,1.7,9,1.7,9,1.8,8
2012/9/6 17:41,1.7,9,1.7,9,2.2,9
2012/9/6 17:42,1.7,9,1.7,9,2.1,9
2012/9/6 17:43,1.7,9,1.7,9,1.6,9
2012/9/6 17:44,1.6,9,1.7,9,2.2,9
2012/9/6 17:45,1.5,9,1.6,9,2.1,8
2012/9/6 17:46,1.4,9,1.5,9,2.4,8
2012/9/6 17:47,1.3,9,1.4,9,2,8
2012/9/6 17:48,1.2,9,1.3,9,2,8
2012/9/6 17:49,1.1,9,1.2,9,1.8,8
2012/9/6 17:50,1.1,9,1.1,9,0.8,13
2012/9/6 17:51,1,10,1.1,9,1.3,12
2012/9/6 17:52,0.9,10,1,9,1.3,12
2012/9/6 17:53,0.9,11,0.9,9,0.8,1
2012/9/6 17:54,0.9,11,0.9,9,1.4,15
2012/9/6 17:55,0.8,12,0.9,9,1.3,1
2012/9/6 17:56,0.8,13,0.8,9,1.5,16
2012/9/6 17:57,0.8,14,0.8,9,1.6,1
2012/9/6 17:58,0.8,14,0.8,9,1.8,16
2012/9/6 17:59,0.9,15,0.9,9,2.6,16
2012/9/6 18:00,1,15,1,9,2.4,16
2012/9/6 18:01,1.1,15,1.1,15,2.7,16
2012/9/6 18:02,1.3,16,1.3,16,2.9,16
2012/9/6 18:03,1.5,16,1.5,16,2.7,16
2012/9/6 18:04,1.6,16,1.6,16,2.7,16
2012/9/6 18:05,1.7,16,1.7,16,3.1,16
2012/9/6 18:06,1.9,16,1.9,16,3.2,16
2012/9/6 18:07,2,16,2,16,3.2,16
2012/9/6 18:08,2,16,2,16,2.9,16
2012/9/6 18:09,2.1,16,2.1,16,2.9,16
2012/9/6 18:10,2.1,16,2.1,16,2.7,16
2012/9/6 18:11,2.1,16,2.1,16,2.2,15
2012/9/6 18:12,2,16,2.1,16,1.9,16
2012/9/6 18:13,2,16,2,16,2.7,1
2012/9/6 18:14,1.9,16,2,16,2.1,16
2012/9/6 18:15,1.9,16,1.9,16,2,1
2012/9/6 18:16,1.7,16,1.9,16,2,1
2012/9/6 18:17,1.6,16,1.7,16,1.6,1
2012/9/6 18:18,1.5,16,1.6,16,1.5,16
2012/9/6 18:19,1.4,16,1.5,16,1,1
2012/9/6 18:20,1.3,1,1.3,16,1.5,16
2012/9/6 18:21,1.2,1,1.3,16,1.5,16
2012/9/6 18:22,1.2,1,1.2,16,2.1,16
2012/9/6 18:23,1.1,1,1.2,16,1.5,16
2012/9/6 18:24,1.1,16,1.1,16,1.1,1
2012/9/6 18:25,0.9,16,1.1,16,0.3,15
2012/9/6 18:26,0.8,16,0.9,16,0.6,9
2012/9/6 18:27,0.8,16,0.8,16,2.2,10
2012/9/6 18:28,0.9,16,0.9,16,2.5,10
2012/9/6 18:29,1.1,14,1.1,16,5.1,10
2012/9/6 18:30,1.3,12,1.3,16,4.1,9
2012/9/6 18:31,1.4,10,1.4,10,3.6,9
2012/9/6 18:32,1.4,10,1.4,10,3.2,9
2012/9/6 18:33,1.4,10,1.4,10,3.5,9
2012/9/6 18:34,1.6,9,1.6,9,3,9
2012/9/6 18:35,1.7,10,1.7,9,2.1,11
2012/9/6 18:36,1.8,10,1.8,10,1.8,10
2012/9/6 18:37,1.8,10,1.8,10,1.3,13
2012/9/6 18:38,1.6,10,1.7,10,1,9
2012/9/6 18:39,1.4,10,1.6,10,1,9
2012/9/6 18:40,1.2,10,1.4,10,1.5,10
2012/9/6 18:41,1,10,1.2,10,0.4,12
2012/9/6 18:42,0.9,11,1,10,0.6,13
2012/9/6 18:43,0.8,11,0.9,10,1.3,12
2012/9/6 18:44,0.7,11,0.8,10,1.9,15
2012/9/6 18:45,0.7,12,0.7,10,1.6,16
2012/9/6 18:46,0.6,12,0.7,10,1.4,16
2012/9/6 18:47,0.7,13,0.7,10,1.8,15
2012/9/6 18:48,0.7,13,0.7,10,1.6,16
2012/9/6 18:49,0.8,14,0.8,10,1.1,14
2012/9/6 18:50,0.8,14,0.8,10,1,14
2012/9/6 18:51,0.8,14,0.8,10,1.5,15
2012/9/6 18:52,0.9,15,0.9,11,1.1,16
2012/9/6 18:53,0.9,15,0.9,14,1,2
2012/9/6 18:54,0.8,15,0.9,14,0.6,16
2012/9/6 18:55,0.7,16,0.8,14,0.5,1
2012/9/6 18:56,0.7,16,0.7,14,0.5,1
2012/9/6 18:57,0.6,16,0.7,14,0.1,2
2012/9/6 18:58,0.5,16,0.5,14,0.1,12
2012/9/6 18:59,0.4,16,0.5,14,0.5,8
2012/9/6 19:00,0.4,16,0.4,14,0.5,10
2012/9/6 19:01,0.3,16,0.4,14,0.5,10
2012/9/6 19:02,0.3,16,0.3,15,1.1,8
2012/9/6 19:03,0.3,9,0.3,15,1.3,9
2012/9/6 19:04,0.3,9,0.3,15,0.8,8
2012/9/6 19:05,0.4,9,0.4,16,0.8,10
2012/9/6 19:06,0.4,9,0.4,16,0.5,8
2012/9/6 19:07,0.4,9,0.4,16,1.3,9
2012/9/6 19:08,0.5,9,0.5,16,0.9,9
2012/9/6 19:09,0.5,9,0.5,9,1.3,8
2012/9/6 19:10,0.5,9,0.5,9,1.3,9
2012/9/6 19:11,0.6,9,0.6,9,1.4,9
2012/9/6 19:12,0.7,9,0.7,9,1.4,9
2012/9/6 19:13,0.6,9,0.6,9,0.6,8
2012/9/6 19:14,0.6,9,0.6,9,1.4,15
2012/9/6 19:15,0.6,10,0.6,9,1.5,16
2012/9/6 19:16,0.7,10,0.7,9,1.6,16
2012/9/6 19:17,0.8,11,0.8,11,1.8,16
2012/9/6 19:18,0.8,12,0.8,11,1.6,15
2012/9/6 19:19,0.8,13,0.8,11,1.4,14
2012/9/6 19:20,0.9,14,0.9,13,1.1,15
2012/9/6 19:21,0.9,14,0.9,13,1.3,15
2012/9/6 19:22,0.9,14,0.9,13,1.4,15
2012/9/6 19:23,0.9,15,0.9,13,1.4,15
2012/9/6 19:24,0.9,15,1,15,1.3,15
2012/9/6 19:25,1,15,1,15,1.8,15
2012/9/6 19:26,1,15,1,15,1.6,15
2012/9/6 19:27,1,15,1.1,15,1.8,16
2012/9/6 19:28,1,15,1,15,1.1,15
2012/9/6 19:29,0.9,15,1,15,1,15
2012/9/6 19:30,0.9,15,0.9,15,1,15
2012/9/6 19:31,0.8,15,0.9,15,0.5,12
2012/9/6 19:32,0.7,15,0.8,15,0.5,12
2012/9/6 19:33,0.7,14,0.7,15,0.1,13
2012/9/6 19:34,0.7,14,0.7,15,1,8
2012/9/6 19:35,0.6,14,0.7,15,1.1,7
2012/9/6 19:36,0.5,13,0.6,15,1.1,7
2012/9/6 19:37,0.5,12,0.5,15,1.1,6
2012/9/6 19:38,0.5,10,0.6,15,1,5
2012/9/6 19:39,0.5,8,0.6,15,0.9,5
2012/9/6 19:40,0.5,7,0.5,15,0.1,5
2012/9/6 19:41,0.4,6,0.5,15,0.1,16
2012/9/6 19:42,0.5,6,0.5,15,1,15
2012/9/6 19:43,0.6,5,0.6,14,1,16
2012/9/6 19:44,0.6,4,0.6,14,1.1,16
2012/9/6 19:45,0.5,3,0.6,14,0.9,15
2012/9/6 19:46,0.5,2,0.5,11,0.4,15
2012/9/6 19:47,0.4,1,0.5,11,0.1,15
2012/9/6 19:48,0.4,16,0.4,9,0.8,10
2012/9/6 19:49,0.4,16,0.4,5,0.8,9
2012/9/6 19:50,0.4,15,0.4,5,0.5,9
2012/9/6 19:51,0.4,14,0.4,5,0.4,2
2012/9/6 19:52,0.3,15,0.4,5,0.4,2
2012/9/6 19:53,0.3,15,0.3,5,0.5,2
2012/9/6 19:54,0.3,16,0.3,4,1.5,1
2012/9/6 19:55,0.3,16,0.3,3,1.5,1
2012/9/6 19:56,0.4,1,0.4,2,1.5,1
2012/9/6 19:57,0.5,1,0.5,1,1.5,16
2012/9/6 19:58,0.6,2,0.6,2,1.5,1
2012/9/6 19:59,0.6,1,0.6,2,1.1,16
2012/9/6 20:00,0.7,1,0.7,1,1.1,16
2012/9/6 20:01,0.8,1,0.8,1,1,16
2012/9/6 20:02,0.8,1,0.8,1,1,16
2012/9/6 20:03,0.8,16,0.8,1,0.9,14
2012/9/6 20:04,0.8,16,0.8,1,0.9,16
2012/9/6 20:05,0.8,16,0.8,1,1.3,16
2012/9/6 20:06,0.8,16,0.8,1,1.1,1
2012/9/6 20:07,0.8,16,0.8,1,1.8,1
2012/9/6 20:08,0.8,16,0.8,1,2,16
2012/9/6 20:09,0.9,16,0.9,16,2.1,16
2012/9/6 20:10,0.9,16,0.9,16,2.1,15
2012/9/6 20:11,0.9,16,0.9,16,1.3,16
2012/9/6 20:12,0.9,16,0.9,16,1,16
2012/9/6 20:13,0.9,16,0.9,16,1.1,1
2012/9/6 20:14,0.9,1,0.9,16,0.4,16
2012/9/6 20:15,0.9,1,0.9,16,0.8,3
2012/9/6 20:16,0.8,1,0.9,16,0.6,2
2012/9/6 20:17,0.8,1,0.8,16,0.8,1
2012/9/6 20:18,0.7,1,0.7,16,0.8,16
2012/9/6 20:19,0.6,1,0.7,16,1.1,16
2012/9/6 20:20,0.5,1,0.6,16,1,1
2012/9/6 20:21,0.5,1,0.5,16,1.1,15
2012/9/6 20:22,0.5,1,0.5,16,0.8,15
2012/9/6 20:23,0.5,16,0.5,1,0.6,14
2012/9/6 20:24,0.6,16,0.6,1,0.9,12
2012/9/6 20:25,0.6,15,0.6,1,1.1,11
2012/9/6 20:26,0.6,15,0.7,1,1,11
2012/9/6 20:27,0.7,14,0.7,1,1.1,12
2012/9/6 20:28,0.7,14,0.7,1,1,12
2012/9/6 20:29,0.7,13,0.7,15,1,12
2012/9/6 20:30,0.7,13,0.7,15,1.1,16
2012/9/6 20:31,0.7,13,0.7,15,1,16
2012/9/6 20:32,0.7,13,0.7,15,1.1,1
2012/9/6 20:33,0.6,13,0.7,15,0.5,16
2012/9/6 20:34,0.6,14,0.6,15,0.1,3
2012/9/6 20:35,0.5,14,0.6,15,0.1,3
2012/9/6 20:36,0.4,15,0.5,15,0.3,13
2012/9/6 20:37,0.4,15,0.4,14,0.5,12
2012/9/6 20:38,0.3,15,0.3,13,0.9,10
2012/9/6 20:39,0.3,15,0.3,13,0.4,10
2012/9/6 20:40,0.2,15,0.3,13,0.1,6
2012/9/6 20:41,0.2,15,0.2,13,0.8,3
2012/9/6 20:42,0.2,15,0.2,13,0.5,3
2012/9/6 20:43,0.2,16,0.2,13,0.5,2
2012/9/6 20:44,0.2,16,0.2,14,0.3,3
2012/9/6 20:45,0.2,1,0.2,14,0.3,3
2012/9/6 20:46,0.2,1,0.2,15,1,12
2012/9/6 20:47,0.3,1,0.3,15,1,12
2012/9/6 20:48,0.3,16,0.3,15,1.1,13
2012/9/6 20:49,0.4,16,0.4,16,1.1,14
2012/9/6 20:50,0.5,16,0.5,16,1.1,13
2012/9/6 20:51,0.5,15,0.5,16,0.9,14
2012/9/6 20:57,0.9,12,0.9,12,0.9,12
2012/9/6 20:58,0.9,11,0.9,12,1.1,11
2012/9/6 20:59,0.8,12,0.9,12,1,12
2012/9/6 21:00,0.6,13,0.8,12,0.5,13
2012/9/6 21:01,0.5,13,0.6,12,1,1
2012/9/6 21:02,0.6,14,0.6,12,1.5,16
2012/9/6 21:03,0.7,15,0.7,12,1.6,2
2012/9/6 21:04,0.8,15,0.8,12,1.8,16
2012/9/6 21:05,0.8,16,0.8,12,1.8,1
2012/9/6 21:06,0.9,16,0.9,12,1.6,16
2012/9/6 21:07,0.9,16,0.9,12,1,2
2012/9/6 21:08,0.8,16,0.9,11,1,1
2012/9/6 21:09,0.8,1,0.8,16,0.9,2
2012/9/6 21:10,0.8,1,0.8,16,0.6,1
2012/9/6 21:11,0.8,1,0.8,16,0.1,2
2012/9/6 21:12,0.7,2,0.8,16,0.5,4
2012/9/6 21:13,0.6,2,0.7,16,0.6,5
2012/9/6 21:14,0.5,2,0.6,16,0.4,4
2012/9/6 21:15,0.4,3,0.5,16,0.1,6
2012/9/6 21:16,0.3,3,0.4,16,0.1,16
2012/9/6 21:17,0.2,2,0.3,16,0.1,16
2012/9/6 21:18,0.2,3,0.2,16,0.4,10
2012/9/6 21:19,0.1,3,0.2,1,0.1,4
2012/9/6 21:20,0.1,3,0.1,1,0.5,2
2012/9/6 21:21,0.1,3,0.1,1,0.8,9
2012/9/6 21:22,0.2,3,0.2,2,0.9,10
2012/9/6 21:23,0.2,1,0.2,2,0.8,10
2012/9/6 21:24,0.2,13,0.2,2,0.3,12
2012/9/6 21:25,0.2,12,0.2,3,0,10
2012/9/6 21:26,0.2,10,0.2,3,0.4,8
2012/9/6 21:27,0.2,10,0.2,2,0.3,11
2012/9/6 21:28,0.2,10,0.2,3,0.6,9
2012/9/6 21:29,0.3,10,0.3,10,0.6,13
2012/9/6 21:30,0.3,10,0.3,10,0.8,12
2012/9/6 21:31,0.3,10,0.3,10,1,12
2012/9/6 21:32,0.3,11,0.3,10,0.6,12
2012/9/6 21:33,0.3,11,0.3,10,0.8,13
2012/9/6 21:34,0.4,11,0.4,11,0.5,12
2012/9/6 21:35,0.4,12,0.4,11,0.3,13
2012/9/6 21:36,0.4,12,0.4,11,0,15
2012/9/6 21:37,0.4,13,0.4,11,0.4,1
2012/9/6 21:38,0.3,13,0.4,11,0.3,16
2012/9/6 21:39,0.3,13,0.3,11,0.4,15
2012/9/6 21:40,0.3,14,0.3,11,0.5,16
2012/9/6 21:41,0.2,15,0.3,11,0.4,15
2012/9/6 21:42,0.2,15,0.2,11,0.6,16
2012/9/6 21:43,0.2,15,0.2,11,0.5,15
2012/9/6 21:44,0.1,16,0.2,11,0,15
2012/9/6 21:45,0.2,16,0.2,12,0.5,10
2012/9/6 21:46,0.2,15,0.2,12,0.9,9
2012/9/6 21:47,0.2,15,0.2,13,0.9,10
2012/9/6 21:48,0.2,15,0.2,13,0.6,8
2012/9/6 21:49,0.3,14,0.3,13,1,8
2012/9/6 21:50,0.4,12,0.4,12,1.6,9
2012/9/6 21:51,0.4,11,0.4,12,1.5,9
2012/9/6 21:52,0.4,10,0.4,12,1,8
2012/9/6 21:53,0.4,9,0.4,12,1,8
2012/9/6 21:54,0.5,9,0.5,9,0.5,10
2012/9/6 21:55,0.5,9,0.5,9,0.4,9
2012/9/6 21:56,0.5,9,0.5,9,0.9,13
2012/9/6 21:57,0.5,10,0.5,9,1.1,12
2012/9/6 21:58,0.6,10,0.6,10,1,12
2012/9/6 21:59,0.5,11,0.6,10,0.8,13
2012/9/6 22:00,0.5,11,0.5,10,1.1,14
2012/9/6 22:01,0.5,12,0.5,10,1.1,14
2012/9/6 22:02,0.5,12,0.5,10,0.5,15
2012/9/6 22:03,0.5,13,0.5,10,1.3,16
2012/9/6 22:04,0.6,13,0.6,10,1,15
2012/9/6 22:05,0.6,14,0.6,10,0.9,15
2012/9/6 22:06,0.6,14,0.6,10,1,14
2012/9/6 22:07,0.6,14,0.6,10,0.6,16
2012/9/6 22:08,0.5,14,0.6,10,0.4,15
2012/9/6 22:09,0.5,15,0.5,13,0.1,15
2012/9/6 22:10,0.4,15,0.5,13,0.1,14
2012/9/6 22:11,0.3,15,0.4,13,0.1,11
2012/9/6 22:12,0.3,15,0.3,13,0.1,5
2012/9/6 22:13,0.3,15,0.3,13,0.5,16
2012/9/6 22:14,0.2,15,0.2,13,0.4,16
2012/9/6 22:15,0.1,15,0.2,14,0.1,16
2012/9/6 22:16,0.1,15,0.1,14,0.3,11